Weather History for Denver Centennial, CO

Change the Weather History Date:

Wednesday, December 11, 2013

  Actual Average Record
Temperature  
Mean Temperature 25 °F -  
Max Temperature 40 °F 42 °F 68 °F (2004)
Min Temperature 9 °F 19 °F 1 °F (2000)
Degree Days  
Heating Degree Days 40    
Month to date heating degree days 535  
Moisture  
Dew Point 12 °F    
Average Humidity 60    
Maximum Humidity 80    
Minimum Humidity 39    
Precipitation  
Precipitation 0.00 in - - ()
Month to date precipitation 0.14  
Year to date precipitation 17.43  
Sea Level Pressure  
Sea Level Pressure 30.39 in    
Wind  
Wind Speed 8 mph (SSE)    
Max Wind Speed 15 mph    
Max Gust Speed 17 mph    
Visibility 10 miles    
Events      
Averages and records for this station are not official NWS values.
T = Trace of Precipitation, MM = Missing Value Source: NWS Daily Summary

Daily Weather History Graph

Daily Weather History Graph

Search for Another Location

Airport:

Trip Planner

Search our weather history database for the weather conditions in past years. The results will help you decide how hot, cold, wet, or windy it might be!

Date:

Astronomy

Dec. 11, 2013 Rise Set
Actual Time 7:10 AM MST 4:35 PM MST
Civil Twilight 6:39 AM MST 5:05 PM MST
Nautical Twilight 6:06 AM MST 5:39 PM MST
Astronomical Twilight 5:33 AM MST 6:12 PM MST
Moon 1:09 PM MST (12/11) 1:34 AM MST (12/11)
Length of Visible Light 10h 25m
Length of Day
9h 25m
Waxing Gibbous, 72% of the Moon is Illuminated
Dec 11
Waxing Gibbous
Dec 17
Full
Dec 25
Last Quarter
Jan 1
New
Jan 7
First Quarter

Hourly Weather History & Observations

Time (MST) Temp. Windchill Dew Point Humidity Pressure Visibility Wind Dir Wind Speed Gust Speed Precip Events Conditions
12:53 AM 18.0 °F 8.7 °F 9.0 °F 68% 30.32 in 10.0 mi East 6.9 mph - N/A   Partly Cloudy
1:53 AM 18.0 °F 6.1 °F 10.0 °F 71% 30.33 in 10.0 mi SE 10.4 mph - N/A   Partly Cloudy
2:53 AM 17.1 °F 7.6 °F 10.0 °F 74% 30.35 in 10.0 mi SSE 6.9 mph - N/A   Clear
3:53 AM 14.0 °F 2.9 °F 8.1 °F 77% 30.36 in 10.0 mi SSE 8.1 mph - N/A   Clear
4:53 AM 14.0 °F -0.8 °F 8.1 °F 77% 30.38 in 10.0 mi South 13.8 mph - N/A   Partly Cloudy
5:53 AM 12.0 °F -2.0 °F 7.0 °F 80% 30.41 in 10.0 mi SSW 11.5 mph - N/A   Clear
6:53 AM 12.9 °F 0.7 °F 7.0 °F 77% 30.41 in 10.0 mi South 9.2 mph - N/A   Partly Cloudy
7:53 AM 14.0 °F 2.9 °F 7.0 °F 74% 30.43 in 10.0 mi South 8.1 mph - N/A   Partly Cloudy
8:53 AM 16.0 °F 4.4 °F 8.1 °F 71% 30.45 in 10.0 mi ESE 9.2 mph - N/A   Scattered Clouds
9:53 AM 27.0 °F 20.5 °F 12.9 °F 56% 30.41 in 10.0 mi East 5.8 mph - N/A   Scattered Clouds
10:53 AM 30.0 °F 21.1 °F 17.1 °F 59% 30.38 in 10.0 mi South 10.4 mph - N/A   Partly Cloudy
11:53 AM 33.1 °F 27.7 °F 18.0 °F 54% 30.35 in 10.0 mi SSE 5.8 mph - N/A   Clear
12:53 PM 37.0 °F 33.3 °F 19.0 °F 48% 30.32 in 10.0 mi SSE 4.6 mph - N/A   Partly Cloudy
1:53 PM 37.0 °F 30.4 °F 19.0 °F 48% 30.32 in 10.0 mi North 9.2 mph - N/A   Partly Cloudy
2:53 PM 33.1 °F 26.9 °F 19.9 °F 59% 30.35 in 10.0 mi North 6.9 mph - N/A   Partly Cloudy
3:53 PM 32.0 °F 28.7 °F 19.0 °F 59% 30.38 in 10.0 mi North 3.5 mph - N/A   Partly Cloudy
4:53 PM 28.0 °F - 18.0 °F 66% 30.41 in 10.0 mi Calm Calm - N/A   Partly Cloudy
5:53 PM 21.9 °F 17.2 °F 15.1 °F 75% 30.46 in 10.0 mi SSW 3.5 mph - N/A   Partly Cloudy
6:53 PM 18.0 °F - 12.0 °F 78% 30.49 in 10.0 mi Calm Calm - N/A   Partly Cloudy
7:53 PM 18.0 °F 9.8 °F 10.9 °F 74% 30.48 in 10.0 mi South 5.8 mph - N/A   Clear
8:53 PM 27.0 °F 18.7 °F 8.1 °F 45% 30.43 in 10.0 mi SSE 8.1 mph - N/A   Clear
9:53 PM 28.0 °F 20.8 °F 6.1 °F 39% 30.39 in 10.0 mi SSE 6.9 mph - N/A   Clear
10:53 PM 26.1 °F 17.6 °F 6.1 °F 43% 30.40 in 10.0 mi SSE 8.1 mph - N/A   Clear
11:53 PM 26.1 °F 16.8 °F 6.1 °F 43% 30.38 in 10.0 mi SSE 9.2 mph - N/A   Clear